DW1458 Weather Reports


Display with metric or nautical units.
time (UTC)temp
F
wind
direction
speed
MPH
gust
MPH
rain 1hr
in
rain 24hr
in
rain mn
in
humidity
%
barometer
mb
20260505021523 60 131 0.0 0.0 0.00 0.00 0.00 78 1015.2
20260505014510 62 131 0.0 0.0 0.00 0.00 0.00 75 1015.4
20260505013011 63 131 0.0 0.0 0.00 0.00 0.00 72 1015.5
20260505011510 64 131 0.0 0.0 0.00 0.00 0.00 69 1015.6
20260505010009 66 131 0.0 0.0 0.00 0.00 0.00 67 1015.5
20260505004513 67 131 0.0 0.0 0.00 0.00 0.00 65 1015.6
20260505003016 68 134 0.0 0.0 0.00 0.00 0.00 64 1015.9
20260505001512 69 200 0.0 2.0 0.00 0.00 0.00 62 1015.5
20260505000013 70 111 0.0 4.0 0.00 0.00 0.00 60 1015.9
20260504234510 71 150 0.0 4.0 0.00 0.00 0.00 57 1015.7
20260504233018 72 13 2.0 4.0 0.00 0.00 0.00 56 1015.9
20260504231513 73 233 1.0 5.0 0.00 0.00 0.00 55 1015.9
20260504230016 74 136 1.0 4.0 0.00 0.00 0.00 51 1015.8
20260504223026 75 149 3.0 8.0 0.00 0.00 0.00 48 1015.9
20260504221515 75 199 0.0 4.0 0.00 0.00 0.00 47 1015.8
20260504220017 76 167 2.0 4.0 0.00 0.00 0.00 47 1016.1
20260504214516 76 350 1.0 7.0 0.00 0.00 0.00 47 1016.0
20260504211521 76 261 1.0 6.0 0.00 0.00 0.00 46 1016.0
20260504210017 76 175 2.0 6.0 0.00 0.00 0.00 44 1016.2
20260504204533 76 248 2.0 10.0 0.00 0.00 0.00 46 1016.4
20260504203022 76 186 1.0 6.0 0.00 0.00 0.00 47 1016.3
20260504201519 76 102 2.0 7.0 0.00 0.00 0.00 45 1016.4
20260504200024 77 282 0.0 6.0 0.00 0.00 0.00 42 1016.5
20260504194523 77 122 2.0 6.0 0.00 0.00 0.00 43 1016.7
20260504193023 77 34 1.0 5.0 0.00 0.00 0.00 43 1016.9
20260504191511 77 67 2.0 7.0 0.00 0.00 0.00 41 1017.1
20260504190017 77 116 1.0 6.0 0.00 0.00 0.00 39 1017.2
20260504184523 77 129 1.0 5.0 0.00 0.00 0.00 43 1017.4
20260504183008 76 23 3.0 8.0 0.00 0.00 0.00 41 1017.5
20260504181514 76 224 1.0 7.0 0.00 0.00 0.00 42 1017.7
20260504180018 76 121 3.0 7.0 0.00 0.00 0.00 40 1017.9
20260504174519 76 115 2.0 8.0 0.00 0.00 0.00 40 1018.0
20260504173004 76 94 4.0 8.0 0.00 0.00 0.00 39 1017.9
20260504171510 76 179 2.0 5.0 0.00 0.00 0.00 42 1018.1
20260504081513 52 291 0.0 0.0 0.00 0.52 0.00 92 1018.3
20260504050018 54 291 0.0 0.0 0.00 0.85 0.00 88 1019.7
20260504044521 55 291 0.0 0.0 0.00 0.88 0.85 88 1019.7
20260504043024 55 291 0.0 0.0 0.00 0.90 0.85 86 1019.8
20260504041505 55 291 0.0 0.0 0.00 0.93 0.85 85 1019.8
20260504040010 56 291 0.0 0.0 0.00 0.95 0.85 84 1019.6
20260504034511 56 291 0.0 0.0 0.00 0.97 0.85 83 1019.6
20260504033019 57 291 0.0 0.0 0.00 0.99 0.85 81 1019.6
20260504031527 58 291 0.0 0.0 0.00 1.01 0.85 80 1019.5
20260504030006 58 291 0.0 0.0 0.00 1.02 0.85 78 1019.7
20260504024514 59 291 0.0 0.0 0.00 1.03 0.85 76 1019.5
20260504023019 60 291 0.0 0.0 0.00 1.04 0.85 74 1019.6